Flag for U.S.A. Weather past 2 weeks in Lakewood, Colorado, U.S.A.

Now
15 °F

Partly cloudy.


Feels Like: 8 °F
Forecast: 13 / 24 °F
Wind: 5 mph from South

Location: Centennial Airport

Current Time: Feb 28, 2015 at 9:57:54 PM

Latest Report: Feb 28, 2015 at 8:53 PM


Visibility: 10 mi

Pressure: 30.21 "Hg

Humidity: 77%

Dew point: 9 °F

Location of LakewoodLocation

Historic Weather in Lakewood — Graph

°F

Lakewood temperature yesterday

Maximum temperature yesterday: 20 °F (at 2:53 PM)
Minimum temperature yesterday: 1 °F (at 4:53 AM)
Average temperature yesterday: 10 °F

Past Weeks' High & Low Weather Summary

 TemperatureHumidityPressure
High62 °F (Feb 14, 12:53 PM)100% (Feb 15, 10:00 PM)30.61 "Hg (Feb 15, 10:00 PM)
Low-1 °F (Feb 28, 6:53 AM)15% (Feb 14, 12:53 PM)29.69 "Hg (Feb 20, 11:53 AM)
Average25 °F70%30.16 "Hg
* Reported Feb 13 8:53 PM — Feb 28 8:53 PM, Lakewood, Weather by CustomWeather, © 2015

Note: Actual official high and low records may vary slightly from our data, if they occured in-between our weather recording intervals... More about our weather records

Advertising

Lakewood weather history for previous 24 hours

 ConditionsComfort  
Time TempWeatherWind HumidityBarometerVisibility
8:53 PM
Sat, Feb 28
15 °FPartly cloudy.5 mph77%30.21 "Hg10 mi
7:53 PM17 °FOvercast.No wind74%30.21 "Hg10 mi
6:53 PM17 °FPartly cloudy.3 mph74%30.23 "Hg10 mi
5:53 PM18 °FPartly cloudy.6 mph74%30.19 "Hg10 mi
4:53 PM19 °FBroken clouds.10 mph71%30.19 "Hg10 mi
3:53 PM21 °FBroken clouds.9 mph65%30.15 "Hg10 mi
2:53 PM21 °FBroken clouds.8 mph62%30.15 "Hg10 mi
1:53 PM22 °FBroken clouds.9 mph62%30.13 "Hg10 mi
12:53 PM21 °FBroken clouds.8 mph62%30.15 "Hg10 mi
11:53 AM21 °FBroken clouds.8 mph60%30.16 "Hg10 mi
10:53 AM16 °FBroken clouds.6 mph71%30.19 "Hg10 mi
9:53 AM14 °FBroken clouds.3 mph73%30.18 "Hg10 mi
8:53 AM10 °FBroken clouds.3 mph88%30.19 "Hg8 mi
7:53 AM7 °FBroken clouds.5 mph87%30.19 "Hg8 mi
6:53 AM-1 °FIce fog.No wind86%30.18 "Hg5 mi
5:53 AM4 °FIce fog.No wind91%30.13 "Hg6 mi
4:53 AM2 °FIce fog.No wind92%30.11 "Hg6 mi
3:53 AM3 °FIce fog.No wind87%30.09 "Hg6 mi
2:53 AM3 °FClear.3 mph87%30.06 "Hg8 mi
1:53 AM5 °FPassing clouds.3 mph83%30.07 "Hg9 mi
12:53 AM4 °FPassing clouds.5 mph84%30.10 "Hg9 mi
11:53 PM
Fri, Feb 27
7 °FPassing clouds.9 mph83%30.11 "Hg9 mi
10:53 PM8 °FPassing clouds.6 mph79%30.12 "Hg10 mi
9:53 PM10 °FLight snow. Passing clouds.6 mph76%30.14 "Hg7 mi
Weather by CustomWeather, © 2015

See weather overviewHow to use our weather pages